Showing default

YAOGAN-43 02D, 60948

Orbit data source: Space-Track

YAOGAN-43 02D, 60948 is a payload satellite owned by PLA GAD (CN) in LEO that was launched on Tue, 03 Sep 2024 UTC via a CHANG ZHENG 4B launch vehicle from the Xichang Space Center, China (XSC). Payload-class satellites include a variety of spacecraft equipped with specific instruments for various scientific and technological missions. These include communications satellites like Starlink; space stations such as the ISS; scientific satellites like the Hubble; Earth observation satellites from companies like Planet Labs, Umbra, and HawkEye 360; GPS; miniature CubeSats for education and research; and military/defense satellites.

Loading next visibility...
Identifier
60948, 2024-156D
Orbit
LEO
Country
Flag of CNCN / PRC
Related business
Manufacturer
SAST
Mission
Operational Defense Communications
Bus & Motor
Unknown
Mass
~300 kg wet, ~300 kg dry
Launch date (UTC)
2024-09-03 (2 years ago)
Launch vehicle
CHANG ZHENG 4B
Launch site
Xichang Space Center, China (XSC)
Object type
Payload
Rocket body
Debris
Shape & HBR
Box + 2 Pan, 2.5 m
Radar Cross Section
11.063 m², Large (>1 m²)

Expand to show TLE details & history
Last TLE update: 9 hours ago

TLE from 9 hours ago
0 YAOGAN-43 02D
1 60948U 24156D   26256.61343042  .00001004  00000-0  43241-4 0  9992
2 60948  34.9944   1.7933 0003780 313.9324  46.1078 15.22970739112935
Epoch: 2026-09-13T14:43Z
TLE epoch observation values (Epoch: 2026-09-13T14:43:20.388Z)
Latitude
-0.00003°
Longitude
148.35274°
Altitude
493.991 km
Speed
7.621 km/s
True Right ascension
00h 07m 10s
True Declination
0° 00' 00"
Sunlit
Object was in full shadow at epoch
Visualization orbit readout
Latitude
Unknown
Longitude
Unknown
Altitude
Unknown
Speed
Unknown
Apparent Right ascension
Unknown
Apparent Declination
Unknown
Sunlit
N/A
Visualization observer readout
Local Sidereal Time
16:02:48
Azimuth
Unknown
Elevation
Unknown
Doppler factor
Unknown
Orbital elements
Apogee altitude
502.737 km
Perigee altitude
497.537 km
Semi-major axis
6,878.274 km
Eccentricity
0.00038
Inclination
34.9944°
RAAN
1.7933°
Arg. of periapsis
313.9324°
True anomaly
46.13903°
Mean anomaly
46.1078°
Eccentric anomaly
46.12341°
Mean motion
3.80473 °/min
Orbital period
94.62 mins
BSTAR
0.000043241
Loading maneuver chart data...
Computing Atmospheric mass density...
Loading historical data...
Loading historical data...
Loading historical data...
Loading historical data...
Loading historical data...
Loading historical data...
Loading historical data...

Documentation

Showing up to 5 results
|